Regional Weather Roundup
Issued by NWS

Home | Current Version | Previous Version | Text Only | Print | Product List | Glossary On
Versions: 1 2 3 4 5 6 7 8 9 10 11 12 13 14 15 16 17 18 19 20 21 22 23 24 25 26 27 28 29 30 31 32 33 34 35 36 37 38 39
000
ASUS46 KSEW 272110
RWRWA

WASHINGTON REGIONAL WEATHER ROUNDUP
NATIONAL WEATHER SERVICE SEATTLE WA
100 PM PST SAT DEC 27 2014

NOTE:"FAIR" INDICATES FEW OR NO CLOUDS BELOW 12,000 FEET WITH NO
SIGNIFICANT WEATHER AND/OR OBSTRUCTIONS TO VISIBILITY.

WAZ505-507>509-272200-
SEATTLE, TACOMA, EVERETT, AND VICINITY

CITY           SKY/WX    TMP DP  RH WIND       PRES   REMARKS
EVERETT        CLOUDY    46  43  89 S8        30.04F
BOEING FIELD   PTSUNNY   50  43  77 S14G24    30.04F
RENTON         CLOUDY    49  45  86 S13G23    30.05F
SEATAC AIRPORT CLOUDY    47  44  90 S18G25    30.05F
JBLM-MCCHORD   CLOUDY    47  47  99 SW12      30.09F
PUYALLUP       NOT AVBL
BREMERTON      SUNNY     48  46  93 S18       30.05F
JBLM-FT LEWIS  CLOUDY    46  46 100 S10       30.09F
TACOMA NARROWS PTSUNNY   48  44  86 S12G21    30.08F
$$

WAZ001-503-506-510-514-515-272200-
NORTH INTERIOR

CITY           SKY/WX    TMP DP  RH WIND       PRES   REMARKS
BELLINGHAM     LGT RAIN  45  43  93 S13G20    29.97F
FRIDAY HARBOR  CLOUDY    46  41  82 SW12G22   30.00F
EASTSOUND      PTSUNNY   46  45  93 S12       29.95F
PORT ANGELES   LGT RAIN  45  40  82 MISG      30.05R
NAS WHIDBEY    LGT RAIN  49  41  74 W25G38    30.04F
ARLINGTON      CLOUDY    43  39  87 NW7       30.06F
BURLINGTON     CLOUDY    43  43 100 NE3       30.04F
$$

WAZ020-022-039-040-504-511-512-272200-
SOUTHWEST INTERIOR

CITY           SKY/WX    TMP DP  RH WIND       PRES   REMARKS
SHELTON        PTSUNNY   49  44  83 SW17G25   30.05F
OLYMPIA        CLOUDY    47  44  90 SW9       30.11F
CHEHALIS       LGT RAIN  46  46 100 S5        30.14F VSB 1
KELSO          CLOUDY    45  39  81 SE8       30.21F
VANCOUVER      LGT RAIN  45  38  76 VRB5      30.20F
SCAPPOOSE, OR  LGT RAIN  45  41  86 SE3       30.19F
PORTLAND, OR   LGT RAIN  45  39  79 SW8       30.20F
$$

WAZ021-516-517-272200-
WASHINGTON COAST

CITY           SKY/WX    TMP DP  RH WIND       PRES   REMARKS
FORKS          PTSUNNY   46  43  89 W8        30.10F
HOQUIAM        PTSUNNY   50  45  83 SW17G23   30.12F
ASTORIA, OR    LGT RAIN  48  45  89 W12       30.19R
$$

WAZ019-023-024-040-518-519-272200-
CASCADE MOUNTAINS AND COLUMBIA GORGE

CITY           SKY/WX    TMP DP  RH WIND       PRES   REMARKS
TROUTDALE, OR  LGT RAIN  46  38  73 S12       30.19F
THE DALLES, OR CLOUDY    42  36  79 CALM      30.13F
$$

WAZ026-027-041>044-520-521-272200-
EAST SLOPES

CITY           SKY/WX    TMP DP  RH WIND       PRES   REMARKS
OMAK           CLOUDY    33  27  78 SE3       30.00F
WENATCHEE      SUNNY     35  28  75 E3        29.99F
ELLENSBURG     CLOUDY    40  29  64 VRB5      30.00F
YAKIMA         PTSUNNY   38  29  70 S3        30.04F
$$

WAZ028-034-035-272200-
COLUMBIA BASIN

CITY           SKY/WX    TMP DP  RH WIND       PRES   REMARKS
EPHRATA        MOSUNNY   36  31  82 S5        29.98F
MOSES LAKE     PTSUNNY   39  34  82 S15       30.00F
PASCO          CLOUDY    44  34  67 S16       30.10F
HERMISTON, OR  LGT RAIN  41  37  86 CALM      30.12F
$$

WAZ036>038-272200-
NORTHEAST WASHINGTON

CITY           SKY/WX    TMP DP  RH WIND       PRES   REMARKS
SPOKANE GEIGER LGT SNOW  33  32  96 S9        30.00F VSB 3/4
SPOKANE FELTS  LGT SNOW  34  31  88 NE3       30.03F VSB 3/4
FAIRCHILD AFB  LGT SNOW  32  32  99 S12       29.99F FOG     WCI  23
COEURDALENE,ID CLOUDY    32  28  86 S8        30.02F
DEER PARK      SNOW      32  31  96 SE6       30.02F VSB 1/2
$$

WAZ029>033-272200-
SOUTHEAST WASHINGTON

CITY           SKY/WX    TMP DP  RH WIND       PRES   REMARKS
PULLMAN        LGT SNOW  31  28  89 SE13      30.08F VSB 1   WCI  21
LEWISTON, ID   CLOUDY    36  29  75 VRB3      30.11F
WALLA WALLA    RAIN      42  36  79 SW18      30.12F
PENDLETON, OR  LGT RAIN  39  34  82 S15       30.11F
$$


USA.gov is the U.S. government's official web portal to all federal, state and local government web resources and services.